COSMOS 375 DEB

Satellite information

Favourite Embed

Satellite Type and Status

DEBRISIN ORBIT

Key statistics

Satellite COSMOS 375 DEB at a glance.

Uptime

20134

Days in orbit

Revolutions

≈ 13.6

Per day

Orbit

LEO

Low Earth Orbit

Inclination

62.9

Latest

Satellite identification and parameters

Extended collection of information and parameters for COSMOS 375 DEB.

Object identification

Identified? True

Debris? True

Object name: COSMOS 375 DEB

International designator: 1970-091Z

Object number (NORAD): 4728

Object ID (CCSDS): 4728

Country: COMMONWEALTH OF INDEPENDENT STATES (CIS)

Current information (Y/N): Y

RCS size: MEDIUM

Orbital parameters

Period: 105.99 minutes

Inclination: 62.9075 deg

SMA: 7418.853 km

Apoapsis: 1510.337 km

Periapsis: 571.099 km

RAAN: 15.6594 deg

Eccentricy: 0.06330075

Argument of periapsis: 262.4966 deg

Mean anomaly: 90.3762 deg

Mean motion: 13.58618792 rev/day

Mean motion (dot): 0.00003618 rev/day2

B* drag term: 0.0013304888 1/REarth

Two-line elements (TLE)

Creation date: Dec. 12, 2025, 10:14 a.m.

Reference frame: TEME

Reference center: EARTH

Epoch: Dec. 12, 2025, 6:57 a.m. UTC

TLE line 0: 0 COSMOS 375 DEB

TLE line 1: 1 04728U 70091Z 25346.29025537 .00003618 00000-0 13305-2 0 9993

TLE line 2: 2 04728 62.9075 15.6594 0633008 262.4966 90.3762 13.58618792651590

Live tracking on map

Real-time ground track for satellite COSMOS 375 DEB.

In-orbit conjunctions

A list of the most updated potential collisions computed for object COSMOS 375 DEB.

Target Orbit TCA Probability of collision Miss distance Type
COSMOS 1308 LEO 2025-03-27 03:21:30 0.0003010711 147.0 (m) PAYLOAD

Associated space launch

The I2P satellites were the first soviet coorbital ASAT system.

COSMOS 375 DEB was lifted into orbit during the mission ‘Tsiklon-2 | I2P 5’, on board a Tsiklon-2 space rocket.

The launch took place on Oct. 30, 1970, 2:36 a.m. from 90/20.

For more information about the launch, click the button.

Launch to space Tsiklon-2 | I2P 5
Tsiklon-2 | I2P 5

Agency: N/A

Status: Launch Successful

Launch date: Oct. 30, 1970, 2:36 a.m. UTC

Rocket: Tsiklon-2

Launch pad: 90/20

Location: Baikonur Cosmodrome, Republic of Kazakhstan

...

Latest news about this satellite

There are no fresh news available about this satellite. Check back as we update our databases every day.


Newsletter sign-up

Weekly statistics, charts and insights to help you stay on top of the space industry.